WGS F8 (USA 272)

Last updated on Tue Sep 22 2026 00:03:14 GMT+0000 (Coordinated Universal Time)

1 41879U 16075A 26264.61623209 -.00000205 00000+0 00000+0 0 9993 2 41879 0.0167 128.9532 0000389 323.0528 280.1452 1.00275317 35789
UTC large
Height (km)
Speed (km/s)
/
Latitude / Longitude
Inclination (degrees)
Orbital Period (minutes)
Azimuth
Elevation
Range (km)
Doppler Factor

Next 0 passes for location: London (51.5072 / 0.1276)

No passes found over London.
WGS F8 (USA 272)